Weather History for Andrews, NC

Change the Weather History Date:

Sunday, August 4, 2013

  Actual Average (KTYS) Record (KTYS)
Temperature  
Mean Temperature 72 °F 78 °F  
Max Temperature 83 °F 88 °F 99 °F (1930)
Min Temperature 62 °F 69 °F 52 °F (1907)
Degree Days  
Heating Degree Days 0 0  
Month to date heating degree days 0  
Since 1 June heating degree days 4  
Since 1 July heating degree days 0  
Cooling Degree Days 8 13  
Month to date cooling degree days 52  
Year to date cooling degree days 936  
Since 1 June cooling degree days 774  
Growing Degree Days 22 (Base 50)    
Moisture  
Dew Point 64 °F    
Average Humidity 80    
Maximum Humidity 100    
Minimum Humidity 50    
Precipitation  
Precipitation 0.00 in 0.13 in 2.48 in (1905)
Month to date precipitation 0.50  
Year to date precipitation 30.83  
Snow  
Snow 0.00 in 0.00 in - ()
Month to date snowfall 0.0  
Since 1 June snowfall 0.0  
Since 1 July snowfall 0.0  
Snow Depth -    
Sea Level Pressure  
Sea Level Pressure 30.09 in    
Wind  
Wind Speed 2 mph (North)    
Max Wind Speed 15 mph    
Max Gust Speed 22 mph    
Visibility 7 miles    
Events Fog    
T = Trace of Precipitation, MM = Missing Value Source: NWS Daily Summary

Daily Weather History Graph

Daily Weather History Graph

Search for Another Location

Airport:

Trip Planner

Search our weather history database for the weather conditions in past years. The results will help you decide how hot, cold, wet, or windy it might be!

Date:

Astronomy

Aug. 04, 2013 Rise Set
Actual Time 6:46 AM EDT 8:35 PM EDT
Civil Twilight 6:19 AM EDT 9:03 PM EDT
Nautical Twilight 5:45 AM EDT 9:36 PM EDT
Astronomical Twilight 5:10 AM EDT 10:11 PM EDT
Moon 4:47 AM EDT (8/4) 6:58 PM EDT (8/4)
Length of Visible Light 14h 43m
Length of Day
13h 48m
Waning Crescent, 5% of the Moon is Illuminated
Aug 4
Waning Crescent
Aug 6
New
Aug 14
First Quarter
Aug 20
Full
Aug 28
Last Quarter

Hourly Weather History & Observations

Time (EDT) Temp. Heat Index Dew Point Humidity Pressure Visibility Wind Dir Wind Speed Gust Speed Precip Events Conditions
12:15 AM 66.4 °F - 65.8 °F 98% 30.10 in 4.0 mi Calm Calm - N/A   Clear
12:35 AM 66.2 °F - 65.7 °F 98% 30.11 in 5.0 mi Calm Calm - N/A   Clear
12:55 AM 66.2 °F - 65.8 °F 99% 30.10 in 4.0 mi Calm Calm - N/A   Clear
1:15 AM 65.7 °F - 65.3 °F 99% 30.10 in 4.0 mi Calm Calm - N/A   Clear
1:35 AM 65.7 °F - 65.5 °F 99% 30.10 in 4.0 mi Calm Calm - N/A   Clear
1:55 AM 64.8 °F - 64.4 °F 99% 30.10 in 5.0 mi Calm Calm - N/A   Clear
2:15 AM 64.4 °F - 64.4 °F 100% 30.10 in 4.0 mi Calm Calm - N/A   Mostly Cloudy
2:35 AM 64.4 °F - 64.2 °F 99% 30.09 in 4.0 mi Calm Calm - N/A   Mostly Cloudy
2:55 AM 64.4 °F - 63.9 °F 98% 30.09 in 3.0 mi Calm Calm - N/A   Scattered Clouds
3:15 AM 64.0 °F - 63.7 °F 99% 30.08 in 4.0 mi Calm Calm - N/A   Scattered Clouds
3:35 AM 64.4 °F - 64.4 °F 100% 30.08 in 4.0 mi Calm Calm - N/A   Mostly Cloudy
3:55 AM 63.7 °F - 63.5 °F 99% 30.08 in 4.0 mi Calm Calm - N/A   Mostly Cloudy
4:15 AM 63.7 °F - 63.5 °F 99% 30.08 in 3.0 mi Calm Calm - N/A   Mostly Cloudy
4:35 AM 64.0 °F - 63.7 °F 99% 30.08 in 4.0 mi Calm Calm - N/A   Mostly Cloudy
4:55 AM 64.4 °F - 64.0 °F 99% 30.09 in 4.0 mi Calm Calm - N/A   Overcast
5:15 AM 64.2 °F - 63.9 °F 99% 30.09 in 4.0 mi Calm Calm - N/A   Mostly Cloudy
5:35 AM 63.5 °F - 63.3 °F 99% 30.08 in 3.0 mi Calm Calm - N/A   Scattered Clouds
5:55 AM 63.3 °F - 63.0 °F 99% 30.09 in 5.0 mi Calm Calm - N/A   Mostly Cloudy
6:15 AM 62.6 °F - 62.2 °F 99% 30.09 in 3.0 mi Calm Calm - N/A   Scattered Clouds
6:35 AM 62.4 °F - 62.2 °F 99% 30.09 in 4.0 mi Calm Calm - N/A   Mostly Cloudy
6:55 AM 63.0 °F - 62.8 °F 99% 30.09 in 1.8 mi Calm Calm - N/A   Overcast
7:15 AM 63.7 °F - 63.7 °F 100% 30.09 in 0.2 mi Calm Calm - N/A Fog Fog
7:35 AM 63.9 °F - 63.9 °F 100% 30.10 in 0.2 mi Calm Calm - N/A Fog Fog
7:55 AM 63.9 °F - 63.9 °F 100% 30.10 in 0.2 mi Calm Calm - N/A Fog Fog
8:15 AM 64.4 °F - 64.4 °F 100% 30.11 in 0.5 mi Calm Calm - N/A Fog Fog
8:35 AM 64.8 °F - 64.8 °F 100% 30.11 in 0.2 mi Calm Calm - N/A Fog Fog
8:55 AM 65.8 °F - 65.7 °F 99% 30.11 in 1.2 mi Calm Calm - N/A   Overcast
9:15 AM 67.1 °F - 66.2 °F 97% 30.11 in 5.0 mi Calm Calm - N/A   Mostly Cloudy
9:35 AM 68.9 °F - 67.1 °F 94% 30.10 in 7.0 mi Calm Calm - N/A   Scattered Clouds
9:55 AM 71.4 °F - 68.0 °F 89% 30.10 in 10.0 mi Calm Calm - N/A   Clear
10:15 AM 75.9 °F - 68.7 °F 78% 30.10 in 10.0 mi Calm Calm - N/A   Scattered Clouds
10:35 AM 77.4 °F - 66.7 °F 70% 30.09 in 10.0 mi Calm Calm - N/A   Scattered Clouds
10:55 AM 78.1 °F - 67.3 °F 69% 30.09 in 10.0 mi East 4.6 mph - N/A   Scattered Clouds
11:15 AM 78.8 °F - 66.2 °F 65% 30.10 in 10.0 mi North 8.1 mph - N/A   Scattered Clouds
11:35 AM 79.9 °F - 66.6 °F 64% 30.10 in 10.0 mi North 9.2 mph - N/A   Clear
11:55 AM 80.1 °F 82.0 °F 65.5 °F 61% 30.10 in 10.0 mi NNE 11.5 mph - N/A   Scattered Clouds
12:15 PM 80.8 °F 82.9 °F 66.0 °F 61% 30.09 in 10.0 mi NNE 12.7 mph 17.3 mph N/A   Scattered Clouds
12:35 PM 81.3 °F 83.5 °F 66.0 °F 60% 30.09 in 10.0 mi North 10.4 mph - N/A   Scattered Clouds
12:55 PM 81.5 °F 83.6 °F 66.0 °F 59% 30.08 in 10.0 mi NNE 9.2 mph 17.3 mph N/A   Scattered Clouds
1:15 PM 81.9 °F 84.1 °F 66.2 °F 59% 30.08 in 10.0 mi NNE 8.1 mph - N/A   Scattered Clouds
1:35 PM 81.9 °F 84.1 °F 66.0 °F 59% 30.08 in 10.0 mi NNE 12.7 mph 17.3 mph N/A   Clear
1:55 PM 82.4 °F 84.2 °F 65.1 °F 56% 30.08 in 10.0 mi NE 10.4 mph 19.6 mph N/A   Clear
2:15 PM 82.4 °F 84.2 °F 65.3 °F 56% 30.07 in 10.0 mi NE 11.5 mph 18.4 mph N/A   Clear
2:35 PM 83.5 °F 85.7 °F 66.2 °F 56% 30.07 in 10.0 mi North 9.2 mph 19.6 mph N/A   Clear
2:55 PM 82.4 °F 84.2 °F 65.3 °F 56% 30.07 in 10.0 mi North 8.1 mph 16.1 mph N/A   Clear
3:15 PM 82.4 °F 84.1 °F 64.9 °F 55% 30.07 in 10.0 mi North 9.2 mph 16.1 mph N/A   Clear
3:35 PM 80.6 °F 82.3 °F 64.6 °F 58% 30.06 in 10.0 mi NNE 15.0 mph 21.9 mph N/A   Mostly Cloudy
3:55 PM 81.7 °F 83.3 °F 64.8 °F 56% 30.06 in 10.0 mi North 11.5 mph 19.6 mph N/A   Mostly Cloudy
4:15 PM 81.0 °F 82.6 °F 64.2 °F 57% 30.06 in 10.0 mi North 11.5 mph 18.4 mph N/A   Scattered Clouds
4:35 PM 81.7 °F 83.5 °F 65.3 °F 57% 30.06 in 10.0 mi North 15.0 mph 18.4 mph N/A   Clear
4:55 PM 82.0 °F 83.6 °F 64.2 °F 55% 30.07 in 10.0 mi North 6.9 mph - N/A   Scattered Clouds
5:15 PM 81.3 °F 82.5 °F 62.6 °F 53% 30.06 in 10.0 mi North 4.6 mph - N/A   Scattered Clouds
5:35 PM 81.7 °F 83.0 °F 63.3 °F 54% 30.06 in 10.0 mi North 6.9 mph - N/A   Scattered Clouds
5:55 PM 80.8 °F 81.8 °F 61.7 °F 52% 30.06 in 10.0 mi North 6.9 mph - N/A   Scattered Clouds
6:15 PM 80.2 °F 81.6 °F 63.1 °F 56% 30.06 in 10.0 mi NNE 3.5 mph - N/A   Clear
6:35 PM 79.9 °F - 61.7 °F 54% 30.05 in 10.0 mi North 5.8 mph - N/A   Clear
6:55 PM 79.7 °F - 60.1 °F 51% 30.06 in 10.0 mi NNE 5.8 mph - N/A   Clear
7:15 PM 79.0 °F - 59.0 °F 50% 30.06 in 10.0 mi North 3.5 mph - N/A   Clear
7:35 PM 76.8 °F - 59.7 °F 55% 30.07 in 10.0 mi Calm Calm - N/A   Clear
7:55 PM 73.8 °F - 62.8 °F 68% 30.07 in 10.0 mi NE 3.5 mph - N/A   Clear
8:15 PM 70.5 °F - 63.1 °F 77% 30.07 in 10.0 mi NNW 3.5 mph - N/A   Clear
8:35 PM 69.4 °F - 63.3 °F 81% 30.08 in 10.0 mi NNW 3.5 mph - N/A   Clear
8:55 PM 68.5 °F - 62.2 °F 80% 30.08 in 10.0 mi WNW 3.5 mph - N/A   Clear
9:15 PM 67.5 °F - 62.8 °F 85% 30.08 in 10.0 mi Calm Calm - N/A   Clear
9:35 PM 65.8 °F - 62.6 °F 89% 30.09 in 10.0 mi Calm Calm - N/A   Clear
9:55 PM 65.1 °F - 62.4 °F 91% 30.10 in 10.0 mi Calm Calm - N/A   Clear
10:15 PM 64.9 °F - 62.4 °F 92% 30.10 in 10.0 mi Calm Calm - N/A   Clear
10:35 PM 64.6 °F - 62.6 °F 93% 30.11 in 10.0 mi Calm Calm - N/A   Clear
10:55 PM 63.1 °F - 62.1 °F 96% 30.11 in 10.0 mi Calm Calm - N/A   Clear
11:15 PM 63.0 °F - 62.1 °F 97% 30.11 in 7.0 mi Calm Calm - N/A   Clear
11:35 PM 62.4 °F - 61.0 °F 95% 30.11 in 10.0 mi Calm Calm - N/A   Clear
11:55 PM 62.4 °F - 61.2 °F 96% 30.12 in 7.0 mi Calm Calm - N/A   Clear